METEOSAT-11 (MSG-4)

Last updated on Thu Aug 20 2026 00:02:39 GMT+0000 (Coordinated Universal Time)

1 40732U 15034A 26231.55952398 .00000058 00000+0 00000+0 0 9990 2 40732 3.3551 70.6684 0000799 50.4542 57.7291 1.00264811 7855
UTC large
Height (km)
Speed (km/s)
/
Latitude / Longitude
Inclination (degrees)
Orbital Period (minutes)
Azimuth
Elevation
Range (km)
Doppler Factor

Next 0 passes for location: London (51.5072 / 0.1276)

No passes found over London.
METEOSAT-11 (MSG-4)